owner,sensor,date,latitude,longitude,vertical_datum,sea_water_practical_salinity,qcFlag 
TABS,ioos:station:wmo:42048:1,2014-06-01T00:00:00Z,27.9396,-96.8429,2.0,32.428,11111222 
TABS,ioos:station:wmo:42048:1,2014-06-01T00:30:00Z,27.9396,-96.8429,2.0,32.4294,11111222 
TABS,ioos:station:wmo:42048:1,2014-06-01T01:00:00Z,27.9396,-96.8429,2.0,32.4279,11111222 
TABS,ioos:station:wmo:42048:1,2014-06-01T01:30:00Z,27.9396,-96.8429,2.0,32.4353,11111222 
TABS,ioos:station:wmo:42048:1,2014-06-01T02:00:00Z,27.9396,-96.8429,2.0,32.4419,11111222 
TABS,ioos:station:wmo:42048:1,2014-06-01T02:30:00Z,27.9396,-96.8429,2.0,32.4448,11111222 
TABS,ioos:station:wmo:42048:1,2014-06-01T03:00:00Z,27.9396,-96.8429,2.0,32.4494,11111222 
TABS,ioos:station:wmo:42048:1,2014-06-01T03:30:00Z,27.9396,-96.8429,2.0,32.4502,11111222 
TABS,ioos:station:wmo:42048:1,2014-06-01T04:00:00Z,27.9396,-96.8429,2.0,32.4494,11111222 
TABS,ioos:station:wmo:42048:1,2014-06-01T04:30:00Z,27.9396,-96.8429,2.0,32.4505,11111222 
TABS,ioos:station:wmo:42048:1,2014-06-01T05:00:00Z,27.9396,-96.8429,2.0,32.4515,11111222 
TABS,ioos:station:wmo:42048:1,2014-06-01T05:30:00Z,27.9396,-96.8429,2.0,32.4531,11111222 
TABS,ioos:station:wmo:42048:1,2014-06-01T06:00:00Z,27.9396,-96.8429,2.0,32.4523,11111222 
TABS,ioos:station:wmo:42048:1,2014-06-01T06:30:00Z,27.9396,-96.8429,2.0,32.454,11111222 
TABS,ioos:station:wmo:42048:1,2014-06-01T07:00:00Z,27.9396,-96.8429,2.0,32.4549,11111222 
TABS,ioos:station:wmo:42048:1,2014-06-01T07:30:00Z,27.9396,-96.8429,2.0,32.4551,11111222 
TABS,ioos:station:wmo:42048:1,2014-06-01T08:00:00Z,27.9396,-96.8429,2.0,32.4529,11111222 
TABS,ioos:station:wmo:42048:1,2014-06-01T08:30:00Z,27.9396,-96.8429,2.0,32.4528,11111222 
TABS,ioos:station:wmo:42048:1,2014-06-01T09:00:00Z,27.9396,-96.8429,2.0,32.4468,11111222 
TABS,ioos:station:wmo:42048:1,2014-06-01T09:30:00Z,27.9396,-96.8429,2.0,32.4333,11111222 
TABS,ioos:station:wmo:42048:1,2014-06-01T10:00:00Z,27.9396,-96.8429,2.0,32.4311,11111222 
TABS,ioos:station:wmo:42048:1,2014-06-01T10:30:00Z,27.9396,-96.8429,2.0,32.4375,11111222 
TABS,ioos:station:wmo:42048:1,2014-06-01T11:00:00Z,27.9396,-96.8429,2.0,32.4325,11111222 
TABS,ioos:station:wmo:42048:1,2014-06-01T11:30:00Z,27.9396,-96.8429,2.0,32.4337,11111222 
TABS,ioos:station:wmo:42048:1,2014-06-01T12:00:00Z,27.9396,-96.8429,2.0,32.4342,11111222 
TABS,ioos:station:wmo:42048:1,2014-06-01T12:30:00Z,27.9396,-96.8429,2.0,32.4416,11111222 
TABS,ioos:station:wmo:42048:1,2014-06-01T13:00:00Z,27.9396,-96.8429,2.0,32.4334,11111222 
TABS,ioos:station:wmo:42048:1,2014-06-01T13:30:00Z,27.9396,-96.8429,2.0,32.433,11111222 
TABS,ioos:station:wmo:42048:1,2014-06-01T14:00:00Z,27.9396,-96.8429,2.0,32.4288,11111222 
TABS,ioos:station:wmo:42048:1,2014-06-01T14:30:00Z,27.9396,-96.8429,2.0,32.4245,11111222 
TABS,ioos:station:wmo:42048:1,2014-06-01T15:00:00Z,27.9396,-96.8429,2.0,32.4205,11111222 
TABS,ioos:station:wmo:42048:1,2014-06-01T15:30:00Z,27.9396,-96.8429,2.0,32.4173,11111222 
TABS,ioos:station:wmo:42048:1,2014-06-01T16:00:00Z,27.9396,-96.8429,2.0,32.4212,11111222 
TABS,ioos:station:wmo:42048:1,2014-06-01T16:30:00Z,27.9396,-96.8429,2.0,32.4212,11111222 
TABS,ioos:station:wmo:42048:1,2014-06-01T17:00:00Z,27.9396,-96.8429,2.0,32.4257,11111222 
TABS,ioos:station:wmo:42048:1,2014-06-01T17:30:00Z,27.9396,-96.8429,2.0,32.4149,11111222 
TABS,ioos:station:wmo:42048:1,2014-06-01T18:00:00Z,27.9396,-96.8429,2.0,32.4075,11111222 
TABS,ioos:station:wmo:42048:1,2014-06-01T18:30:00Z,27.9396,-96.8429,2.0,32.3993,11111222 
TABS,ioos:station:wmo:42048:1,2014-06-01T19:00:00Z,27.9396,-96.8429,2.0,32.4118,11111222 
TABS,ioos:station:wmo:42048:1,2014-06-01T19:30:00Z,27.9396,-96.8429,2.0,32.3887,11111222 
TABS,ioos:station:wmo:42048:1,2014-06-01T20:00:00Z,27.9396,-96.8429,2.0,32.3988,11111222 
TABS,ioos:station:wmo:42048:1,2014-06-01T20:30:00Z,27.9396,-96.8429,2.0,32.4071,11111222 
TABS,ioos:station:wmo:42048:1,2014-06-01T21:00:00Z,27.9396,-96.8429,2.0,32.4071,11111222 
TABS,ioos:station:wmo:42048:1,2014-06-01T21:30:00Z,27.9396,-96.8429,2.0,32.3921,11111222 
TABS,ioos:station:wmo:42048:1,2014-06-01T22:00:00Z,27.9396,-96.8429,2.0,32.4025,11111222 
TABS,ioos:station:wmo:42048:1,2014-06-01T22:30:00Z,27.9396,-96.8429,2.0,32.4079,11111222 
TABS,ioos:station:wmo:42048:1,2014-06-01T23:00:00Z,27.9396,-96.8429,2.0,32.4107,11111222 
TABS,ioos:station:wmo:42048:1,2014-06-01T23:30:00Z,27.9396,-96.8429,2.0,32.4057,11111222 
TABS,ioos:station:wmo:42048:1,2014-06-02T00:00:00Z,27.9396,-96.8429,2.0,32.413,11111222 
TABS,ioos:station:wmo:42048:1,2014-06-02T00:30:00Z,27.9396,-96.8429,2.0,32.415,11111222 
TABS,ioos:station:wmo:42048:1,2014-06-02T01:00:00Z,27.9396,-96.8429,2.0,32.4151,11111222 
TABS,ioos:station:wmo:42048:1,2014-06-02T01:30:00Z,27.9396,-96.8429,2.0,32.403,11111222 
TABS,ioos:station:wmo:42048:1,2014-06-02T02:00:00Z,27.9396,-96.8429,2.0,32.3915,11111222 
TABS,ioos:station:wmo:42048:1,2014-06-02T02:30:00Z,27.9396,-96.8429,2.0,32.371,11111222 
TABS,ioos:station:wmo:42048:1,2014-06-02T03:00:00Z,27.9396,-96.8429,2.0,32.3672,11111222 
TABS,ioos:station:wmo:42048:1,2014-06-02T03:30:00Z,27.9396,-96.8429,2.0,32.3305,11111222 
TABS,ioos:station:wmo:42048:1,2014-06-02T04:00:00Z,27.9396,-96.8429,2.0,32.2897,11111222 
TABS,ioos:station:wmo:42048:1,2014-06-02T04:30:00Z,27.9396,-96.8429,2.0,32.2474,11111222 
TABS,ioos:station:wmo:42048:1,2014-06-02T05:00:00Z,27.9396,-96.8429,2.0,32.2353,11111222 
TABS,ioos:station:wmo:42048:1,2014-06-02T05:30:00Z,27.9396,-96.8429,2.0,32.2034,11111222 
TABS,ioos:station:wmo:42048:1,2014-06-02T06:00:00Z,27.9396,-96.8429,2.0,32.1866,11111222 
TABS,ioos:station:wmo:42048:1,2014-06-02T06:30:00Z,27.9396,-96.8429,2.0,32.1597,11111222 
TABS,ioos:station:wmo:42048:1,2014-06-02T07:00:00Z,27.9396,-96.8429,2.0,32.1209,11111222 
TABS,ioos:station:wmo:42048:1,2014-06-02T07:30:00Z,27.9396,-96.8429,2.0,32.0941,11111222 
TABS,ioos:station:wmo:42048:1,2014-06-02T08:00:00Z,27.9396,-96.8429,2.0,32.0994,11111222 
TABS,ioos:station:wmo:42048:1,2014-06-02T08:30:00Z,27.9396,-96.8429,2.0,32.1059,11111222 
TABS,ioos:station:wmo:42048:1,2014-06-02T09:00:00Z,27.9396,-96.8429,2.0,32.1083,11111222 
TABS,ioos:station:wmo:42048:1,2014-06-02T09:30:00Z,27.9396,-96.8429,2.0,32.1192,11111222 
TABS,ioos:station:wmo:42048:1,2014-06-02T10:00:00Z,27.9396,-96.8429,2.0,32.1308,11111222 
TABS,ioos:station:wmo:42048:1,2014-06-02T10:30:00Z,27.9396,-96.8429,2.0,32.1427,11111222 
TABS,ioos:station:wmo:42048:1,2014-06-02T11:00:00Z,27.9396,-96.8429,2.0,32.1495,11111222 
TABS,ioos:station:wmo:42048:1,2014-06-02T11:30:00Z,27.9396,-96.8429,2.0,32.1636,11111222 
TABS,ioos:station:wmo:42048:1,2014-06-02T12:00:00Z,27.9396,-96.8429,2.0,32.1763,11111222 
TABS,ioos:station:wmo:42048:1,2014-06-02T12:30:00Z,27.9396,-96.8429,2.0,32.2013,11111222 
TABS,ioos:station:wmo:42048:1,2014-06-02T13:00:00Z,27.9396,-96.8429,2.0,32.2256,11111222 
TABS,ioos:station:wmo:42048:1,2014-06-02T13:30:00Z,27.9396,-96.8429,2.0,32.2472,11111222 
TABS,ioos:station:wmo:42048:1,2014-06-02T14:00:00Z,27.9396,-96.8429,2.0,32.2702,11111222 
TABS,ioos:station:wmo:42048:1,2014-06-02T14:30:00Z,27.9396,-96.8429,2.0,32.2873,11111222 
TABS,ioos:station:wmo:42048:1,2014-06-02T15:00:00Z,27.9396,-96.8429,2.0,32.2978,11111222 
TABS,ioos:station:wmo:42048:1,2014-06-02T15:30:00Z,27.9396,-96.8429,2.0,32.2972,11111222 
TABS,ioos:station:wmo:42048:1,2014-06-02T16:00:00Z,27.9396,-96.8429,2.0,32.3013,11111222 
TABS,ioos:station:wmo:42048:1,2014-06-02T16:30:00Z,27.9396,-96.8429,2.0,32.2953,11111222 
TABS,ioos:station:wmo:42048:1,2014-06-02T17:00:00Z,27.9396,-96.8429,2.0,32.2653,11111222 
TABS,ioos:station:wmo:42048:1,2014-06-02T17:30:00Z,27.9396,-96.8429,2.0,32.2883,11111222 
TABS,ioos:station:wmo:42048:1,2014-06-02T18:00:00Z,27.9396,-96.8429,2.0,32.2649,11111222 
TABS,ioos:station:wmo:42048:1,2014-06-02T18:30:00Z,27.9396,-96.8429,2.0,32.2007,11111222 
TABS,ioos:station:wmo:42048:1,2014-06-02T19:00:00Z,27.9396,-96.8429,2.0,32.1843,11111222 
TABS,ioos:station:wmo:42048:1,2014-06-02T19:30:00Z,27.9396,-96.8429,2.0,32.1793,11111222 
TABS,ioos:station:wmo:42048:1,2014-06-02T20:00:00Z,27.9396,-96.8429,2.0,32.168,11111222 
TABS,ioos:station:wmo:42048:1,2014-06-02T20:30:00Z,27.9396,-96.8429,2.0,32.1631,11111222 
TABS,ioos:station:wmo:42048:1,2014-06-02T21:00:00Z,27.9396,-96.8429,2.0,32.1606,11111222 
TABS,ioos:station:wmo:42048:1,2014-06-02T21:30:00Z,27.9396,-96.8429,2.0,32.1865,11111222 
TABS,ioos:station:wmo:42048:1,2014-06-02T22:00:00Z,27.9396,-96.8429,2.0,32.1875,11111222 
TABS,ioos:station:wmo:42048:1,2014-06-02T22:30:00Z,27.9396,-96.8429,2.0,32.1924,11111222 
TABS,ioos:station:wmo:42048:1,2014-06-02T23:00:00Z,27.9396,-96.8429,2.0,32.2234,11111222 
TABS,ioos:station:wmo:42048:1,2014-06-02T23:30:00Z,27.9396,-96.8429,2.0,32.2,11111222 
TABS,ioos:station:wmo:42048:1,2014-06-03T00:00:00Z,27.9396,-96.8429,2.0,32.1999,11111222 
TABS,ioos:station:wmo:42048:1,2014-06-03T00:30:00Z,27.9396,-96.8429,2.0,32.1953,11111222 
TABS,ioos:station:wmo:42048:1,2014-06-03T01:00:00Z,27.9396,-96.8429,2.0,32.1751,11111222 
TABS,ioos:station:wmo:42048:1,2014-06-03T01:30:00Z,27.9396,-96.8429,2.0,32.1665,11111222 
TABS,ioos:station:wmo:42048:1,2014-06-03T02:00:00Z,27.9396,-96.8429,2.0,32.1579,11111222 
TABS,ioos:station:wmo:42048:1,2014-06-03T02:30:00Z,27.9396,-96.8429,2.0,32.1406,11111222 
TABS,ioos:station:wmo:42048:1,2014-06-03T03:00:00Z,27.9396,-96.8429,2.0,32.1329,11111222 
TABS,ioos:station:wmo:42048:1,2014-06-03T03:30:00Z,27.9396,-96.8429,2.0,32.1146,11111222 
TABS,ioos:station:wmo:42048:1,2014-06-03T04:00:00Z,27.9396,-96.8429,2.0,32.1089,11111222 
TABS,ioos:station:wmo:42048:1,2014-06-03T04:30:00Z,27.9396,-96.8429,2.0,32.0848,11111222 
TABS,ioos:station:wmo:42048:1,2014-06-03T05:00:00Z,27.9396,-96.8429,2.0,32.0896,11111222 
TABS,ioos:station:wmo:42048:1,2014-06-03T05:30:00Z,27.9396,-96.8429,2.0,32.0791,11111222 
TABS,ioos:station:wmo:42048:1,2014-06-03T06:00:00Z,27.9396,-96.8429,2.0,32.3292,11111222 
TABS,ioos:station:wmo:42048:1,2014-06-03T06:30:00Z,27.9396,-96.8429,2.0,32.4046,11111222 
TABS,ioos:station:wmo:42048:1,2014-06-03T07:00:00Z,27.9396,-96.8429,2.0,32.5032,11111222 
TABS,ioos:station:wmo:42048:1,2014-06-03T07:30:00Z,27.9396,-96.8429,2.0,32.498,11111222 
TABS,ioos:station:wmo:42048:1,2014-06-03T08:00:00Z,27.9396,-96.8429,2.0,32.4913,11111222 
TABS,ioos:station:wmo:42048:1,2014-06-03T08:30:00Z,27.9396,-96.8429,2.0,32.3291,11111222 
TABS,ioos:station:wmo:42048:1,2014-06-03T09:00:00Z,27.9396,-96.8429,2.0,32.2709,11111222 
TABS,ioos:station:wmo:42048:1,2014-06-03T09:30:00Z,27.9396,-96.8429,2.0,32.1126,11111222 
TABS,ioos:station:wmo:42048:1,2014-06-03T10:00:00Z,27.9396,-96.8429,2.0,32.063,11111222 
TABS,ioos:station:wmo:42048:1,2014-06-03T10:30:00Z,27.9396,-96.8429,2.0,32.079,11111222 
TABS,ioos:station:wmo:42048:1,2014-06-03T11:00:00Z,27.9396,-96.8429,2.0,31.9688,11111222 
TABS,ioos:station:wmo:42048:1,2014-06-03T11:30:00Z,27.9396,-96.8429,2.0,31.9462,11111222 
TABS,ioos:station:wmo:42048:1,2014-06-03T12:00:00Z,27.9396,-96.8429,2.0,31.94,11111222 
TABS,ioos:station:wmo:42048:1,2014-06-03T12:30:00Z,27.9396,-96.8429,2.0,31.9158,11111222 
TABS,ioos:station:wmo:42048:1,2014-06-03T13:00:00Z,27.9396,-96.8429,2.0,31.9063,11111222 
TABS,ioos:station:wmo:42048:1,2014-06-03T13:30:00Z,27.9396,-96.8429,2.0,31.8997,11111222 
TABS,ioos:station:wmo:42048:1,2014-06-03T14:00:00Z,27.9396,-96.8429,2.0,31.9035,11111222 
TABS,ioos:station:wmo:42048:1,2014-06-03T14:30:00Z,27.9396,-96.8429,2.0,31.9183,11111222 
TABS,ioos:station:wmo:42048:1,2014-06-03T15:00:00Z,27.9396,-96.8429,2.0,31.8977,11111222 
TABS,ioos:station:wmo:42048:1,2014-06-03T15:30:00Z,27.9396,-96.8429,2.0,31.9054,11111222 
TABS,ioos:station:wmo:42048:1,2014-06-03T16:00:00Z,27.9396,-96.8429,2.0,31.937,11111222 
TABS,ioos:station:wmo:42048:1,2014-06-03T16:30:00Z,27.9396,-96.8429,2.0,31.9443,11111222 
TABS,ioos:station:wmo:42048:1,2014-06-03T17:00:00Z,27.9396,-96.8429,2.0,31.9131,11111222 
TABS,ioos:station:wmo:42048:1,2014-06-03T17:30:00Z,27.9396,-96.8429,2.0,31.8833,11111222 
TABS,ioos:station:wmo:42048:1,2014-06-03T18:00:00Z,27.9396,-96.8429,2.0,31.9004,11111222 
TABS,ioos:station:wmo:42048:1,2014-06-03T18:30:00Z,27.9396,-96.8429,2.0,31.9035,11111222 
TABS,ioos:station:wmo:42048:1,2014-06-03T19:00:00Z,27.9396,-96.8429,2.0,31.8758,11111222 
TABS,ioos:station:wmo:42048:1,2014-06-03T19:30:00Z,27.9396,-96.8429,2.0,31.8743,11111222 
TABS,ioos:station:wmo:42048:1,2014-06-03T20:00:00Z,27.9396,-96.8429,2.0,31.8767,11111222 
TABS,ioos:station:wmo:42048:1,2014-06-03T20:30:00Z,27.9396,-96.8429,2.0,31.8728,11111222 
TABS,ioos:station:wmo:42048:1,2014-06-03T21:00:00Z,27.9396,-96.8429,2.0,31.8323,11111222 
TABS,ioos:station:wmo:42048:1,2014-06-03T21:30:00Z,27.9396,-96.8429,2.0,31.8187,11111222 
TABS,ioos:station:wmo:42048:1,2014-06-03T22:00:00Z,27.9396,-96.8429,2.0,31.8161,11111222 
TABS,ioos:station:wmo:42048:1,2014-06-03T22:30:00Z,27.9396,-96.8429,2.0,31.82,11111222 
TABS,ioos:station:wmo:42048:1,2014-06-03T23:00:00Z,27.9396,-96.8429,2.0,31.8459,11111222 
TABS,ioos:station:wmo:42048:1,2014-06-03T23:30:00Z,27.9396,-96.8429,2.0,31.8546,11111222 
TABS,ioos:station:wmo:42048:1,2014-06-04T00:00:00Z,27.9396,-96.8429,2.0,31.8529,11111222 
TABS,ioos:station:wmo:42048:1,2014-06-04T00:30:00Z,27.9396,-96.8429,2.0,31.8718,11111222 
TABS,ioos:station:wmo:42048:1,2014-06-04T01:00:00Z,27.9396,-96.8429,2.0,31.8565,11111222 
TABS,ioos:station:wmo:42048:1,2014-06-04T01:30:00Z,27.9396,-96.8429,2.0,31.8592,11111222 
TABS,ioos:station:wmo:42048:1,2014-06-04T02:00:00Z,27.9396,-96.8429,2.0,31.8679,11111222 
TABS,ioos:station:wmo:42048:1,2014-06-04T02:30:00Z,27.9396,-96.8429,2.0,31.9135,11111222 
TABS,ioos:station:wmo:42048:1,2014-06-04T03:00:00Z,27.9396,-96.8429,2.0,31.9239,11111222 
TABS,ioos:station:wmo:42048:1,2014-06-04T03:30:00Z,27.9396,-96.8429,2.0,31.9175,11111222 
TABS,ioos:station:wmo:42048:1,2014-06-04T04:00:00Z,27.9396,-96.8429,2.0,31.9604,11111222 
TABS,ioos:station:wmo:42048:1,2014-06-04T04:30:00Z,27.9396,-96.8429,2.0,32.0639,11111222 
TABS,ioos:station:wmo:42048:1,2014-06-04T05:00:00Z,27.9396,-96.8429,2.0,32.0754,11111222 
TABS,ioos:station:wmo:42048:1,2014-06-04T05:30:00Z,27.9396,-96.8429,2.0,31.9779,11111222 
TABS,ioos:station:wmo:42048:1,2014-06-04T06:00:00Z,27.9396,-96.8429,2.0,31.8112,11111222 
TABS,ioos:station:wmo:42048:1,2014-06-04T06:30:00Z,27.9396,-96.8429,2.0,31.7695,11111222 
TABS,ioos:station:wmo:42048:1,2014-06-04T07:00:00Z,27.9396,-96.8429,2.0,31.7288,11111222 
TABS,ioos:station:wmo:42048:1,2014-06-04T07:30:00Z,27.9396,-96.8429,2.0,31.7428,11111222 
TABS,ioos:station:wmo:42048:1,2014-06-04T08:00:00Z,27.9396,-96.8429,2.0,31.7416,11111222 
TABS,ioos:station:wmo:42048:1,2014-06-04T08:30:00Z,27.9396,-96.8429,2.0,31.732,11111222 
TABS,ioos:station:wmo:42048:1,2014-06-04T09:00:00Z,27.9396,-96.8429,2.0,31.7354,11111222 
TABS,ioos:station:wmo:42048:1,2014-06-04T09:30:00Z,27.9396,-96.8429,2.0,31.7391,11111222 
TABS,ioos:station:wmo:42048:1,2014-06-04T10:00:00Z,27.9396,-96.8429,2.0,31.7441,11111222 
TABS,ioos:station:wmo:42048:1,2014-06-04T10:30:00Z,27.9396,-96.8429,2.0,31.7745,11111222 
TABS,ioos:station:wmo:42048:1,2014-06-04T11:00:00Z,27.9396,-96.8429,2.0,31.7823,11111222 
TABS,ioos:station:wmo:42048:1,2014-06-04T11:30:00Z,27.9396,-96.8429,2.0,31.7746,11111222 
TABS,ioos:station:wmo:42048:1,2014-06-04T12:00:00Z,27.9396,-96.8429,2.0,31.7731,11111222 
TABS,ioos:station:wmo:42048:1,2014-06-04T12:30:00Z,27.9396,-96.8429,2.0,31.7726,11111222 
TABS,ioos:station:wmo:42048:1,2014-06-04T13:00:00Z,27.9396,-96.8429,2.0,31.7706,11111222 
TABS,ioos:station:wmo:42048:1,2014-06-04T13:30:00Z,27.9396,-96.8429,2.0,31.7648,11111222 
TABS,ioos:station:wmo:42048:1,2014-06-04T14:00:00Z,27.9396,-96.8429,2.0,31.7534,11111222 
TABS,ioos:station:wmo:42048:1,2014-06-04T14:30:00Z,27.9396,-96.8429,2.0,31.7372,11111222 
TABS,ioos:station:wmo:42048:1,2014-06-04T15:00:00Z,27.9396,-96.8429,2.0,31.7306,11111222 
TABS,ioos:station:wmo:42048:1,2014-06-04T15:30:00Z,27.9396,-96.8429,2.0,31.7192,11111222 
TABS,ioos:station:wmo:42048:1,2014-06-04T16:00:00Z,27.9396,-96.8429,2.0,31.7265,11111222 
TABS,ioos:station:wmo:42048:1,2014-06-04T16:30:00Z,27.9396,-96.8429,2.0,31.7441,11111222 
TABS,ioos:station:wmo:42048:1,2014-06-04T17:00:00Z,27.9396,-96.8429,2.0,31.7441,11111222 
TABS,ioos:station:wmo:42048:1,2014-06-04T17:30:00Z,27.9396,-96.8429,2.0,31.5979,11111222 
TABS,ioos:station:wmo:42048:1,2014-06-04T18:00:00Z,27.9396,-96.8429,2.0,31.6039,11111222 
TABS,ioos:station:wmo:42048:1,2014-06-04T18:30:00Z,27.9396,-96.8429,2.0,31.5685,11111222 
TABS,ioos:station:wmo:42048:1,2014-06-04T19:00:00Z,27.9396,-96.8429,2.0,31.5939,11111222 
TABS,ioos:station:wmo:42048:1,2014-06-04T19:30:00Z,27.9396,-96.8429,2.0,31.5773,11111222 
TABS,ioos:station:wmo:42048:1,2014-06-04T20:00:00Z,27.9396,-96.8429,2.0,31.5981,11111222 
TABS,ioos:station:wmo:42048:1,2014-06-04T20:30:00Z,27.9396,-96.8429,2.0,31.5938,11111222 
TABS,ioos:station:wmo:42048:1,2014-06-04T21:00:00Z,27.9396,-96.8429,2.0,31.5864,11111222 
TABS,ioos:station:wmo:42048:1,2014-06-04T21:30:00Z,27.9396,-96.8429,2.0,31.5917,11111222 
TABS,ioos:station:wmo:42048:1,2014-06-04T22:00:00Z,27.9396,-96.8429,2.0,31.6404,11111222 
TABS,ioos:station:wmo:42048:1,2014-06-04T22:30:00Z,27.9396,-96.8429,2.0,31.6631,11111222 
TABS,ioos:station:wmo:42048:1,2014-06-04T23:00:00Z,27.9396,-96.8429,2.0,31.6447,11111222 
TABS,ioos:station:wmo:42048:1,2014-06-04T23:30:00Z,27.9396,-96.8429,2.0,31.6387,11111222 
TABS,ioos:station:wmo:42048:1,2014-06-05T00:00:00Z,27.9396,-96.8429,2.0,31.6438,11111222 
TABS,ioos:station:wmo:42048:1,2014-06-05T00:30:00Z,27.9396,-96.8429,2.0,31.656,11111222 
TABS,ioos:station:wmo:42048:1,2014-06-05T01:00:00Z,27.9396,-96.8429,2.0,31.6668,11111222 
TABS,ioos:station:wmo:42048:1,2014-06-05T01:30:00Z,27.9396,-96.8429,2.0,31.6567,11111222 
TABS,ioos:station:wmo:42048:1,2014-06-05T02:00:00Z,27.9396,-96.8429,2.0,31.6494,11111222 
TABS,ioos:station:wmo:42048:1,2014-06-05T02:30:00Z,27.9396,-96.8429,2.0,31.6529,11111222 
TABS,ioos:station:wmo:42048:1,2014-06-05T03:00:00Z,27.9396,-96.8429,2.0,31.66,11111222 
TABS,ioos:station:wmo:42048:1,2014-06-05T03:30:00Z,27.9396,-96.8429,2.0,31.6687,11111222 
TABS,ioos:station:wmo:42048:1,2014-06-05T04:00:00Z,27.9396,-96.8429,2.0,31.6598,11111222 
TABS,ioos:station:wmo:42048:1,2014-06-05T04:30:00Z,27.9396,-96.8429,2.0,31.6352,11111222 
TABS,ioos:station:wmo:42048:1,2014-06-05T05:00:00Z,27.9396,-96.8429,2.0,31.6042,11111222 
TABS,ioos:station:wmo:42048:1,2014-06-05T05:30:00Z,27.9396,-96.8429,2.0,31.5709,11111222 
TABS,ioos:station:wmo:42048:1,2014-06-05T06:00:00Z,27.9396,-96.8429,2.0,31.5379,11111222 
TABS,ioos:station:wmo:42048:1,2014-06-05T06:30:00Z,27.9396,-96.8429,2.0,31.5192,11111222 
TABS,ioos:station:wmo:42048:1,2014-06-05T07:00:00Z,27.9396,-96.8429,2.0,31.4683,11111222 
TABS,ioos:station:wmo:42048:1,2014-06-05T07:30:00Z,27.9396,-96.8429,2.0,31.4328,11111222 
TABS,ioos:station:wmo:42048:1,2014-06-05T08:00:00Z,27.9396,-96.8429,2.0,31.3967,11111222 
TABS,ioos:station:wmo:42048:1,2014-06-05T08:30:00Z,27.9396,-96.8429,2.0,31.4016,11111222 
TABS,ioos:station:wmo:42048:1,2014-06-05T09:00:00Z,27.9396,-96.8429,2.0,31.4146,11111222 
TABS,ioos:station:wmo:42048:1,2014-06-05T09:30:00Z,27.9396,-96.8429,2.0,31.4385,11111222 
TABS,ioos:station:wmo:42048:1,2014-06-05T10:00:00Z,27.9396,-96.8429,2.0,31.3651,11111222 
TABS,ioos:station:wmo:42048:1,2014-06-05T10:30:00Z,27.9396,-96.8429,2.0,31.2351,11111222 
TABS,ioos:station:wmo:42048:1,2014-06-05T11:00:00Z,27.9396,-96.8429,2.0,31.2102,11111222 
TABS,ioos:station:wmo:42048:1,2014-06-05T11:30:00Z,27.9396,-96.8429,2.0,31.203,11111222 
TABS,ioos:station:wmo:42048:1,2014-06-05T12:00:00Z,27.9396,-96.8429,2.0,31.1659,11111222 
TABS,ioos:station:wmo:42048:1,2014-06-05T12:30:00Z,27.9396,-96.8429,2.0,31.167,11111222 
TABS,ioos:station:wmo:42048:1,2014-06-05T13:00:00Z,27.9396,-96.8429,2.0,31.1577,11111222 
TABS,ioos:station:wmo:42048:1,2014-06-05T13:30:00Z,27.9396,-96.8429,2.0,30.6657,11111222 
TABS,ioos:station:wmo:42048:1,2014-06-05T14:00:00Z,27.9396,-96.8429,2.0,30.4659,11111222 
TABS,ioos:station:wmo:42048:1,2014-06-05T14:30:00Z,27.9396,-96.8429,2.0,30.313,11111222 
TABS,ioos:station:wmo:42048:1,2014-06-05T15:00:00Z,27.9396,-96.8429,2.0,30.2282,11111222 
TABS,ioos:station:wmo:42048:1,2014-06-05T15:30:00Z,27.9396,-96.8429,2.0,30.0595,11111222 
TABS,ioos:station:wmo:42048:1,2014-06-05T16:00:00Z,27.9396,-96.8429,2.0,29.9022,11111222 
TABS,ioos:station:wmo:42048:1,2014-06-05T16:30:00Z,27.9396,-96.8429,2.0,29.8985,11111222 
TABS,ioos:station:wmo:42048:1,2014-06-05T17:00:00Z,27.9396,-96.8429,2.0,29.9217,11111222 
TABS,ioos:station:wmo:42048:1,2014-06-05T17:30:00Z,27.9396,-96.8429,2.0,29.9248,11111222 
TABS,ioos:station:wmo:42048:1,2014-06-05T18:00:00Z,27.9396,-96.8429,2.0,29.9791,11111222 
TABS,ioos:station:wmo:42048:1,2014-06-05T18:30:00Z,27.9396,-96.8429,2.0,29.9849,11111222 
TABS,ioos:station:wmo:42048:1,2014-06-05T19:00:00Z,27.9396,-96.8429,2.0,29.9955,11111222 
TABS,ioos:station:wmo:42048:1,2014-06-05T19:30:00Z,27.9396,-96.8429,2.0,29.8735,11111222 
TABS,ioos:station:wmo:42048:1,2014-06-05T20:00:00Z,27.9396,-96.8429,2.0,29.8032,11111222 
TABS,ioos:station:wmo:42048:1,2014-06-05T20:30:00Z,27.9396,-96.8429,2.0,29.741,11111222 
TABS,ioos:station:wmo:42048:1,2014-06-05T21:00:00Z,27.9396,-96.8429,2.0,29.7229,11111222 
TABS,ioos:station:wmo:42048:1,2014-06-05T21:30:00Z,27.9396,-96.8429,2.0,29.6721,11111222 
TABS,ioos:station:wmo:42048:1,2014-06-05T22:00:00Z,27.9396,-96.8429,2.0,29.6275,11111222 
TABS,ioos:station:wmo:42048:1,2014-06-05T22:30:00Z,27.9396,-96.8429,2.0,29.6322,11111222 
TABS,ioos:station:wmo:42048:1,2014-06-05T23:00:00Z,27.9396,-96.8429,2.0,29.6295,11111222 
TABS,ioos:station:wmo:42048:1,2014-06-05T23:30:00Z,27.9396,-96.8429,2.0,29.5686,11111222 
TABS,ioos:station:wmo:42048:1,2014-06-06T00:00:00Z,27.9396,-96.8429,2.0,29.489,11111222 
TABS,ioos:station:wmo:42048:1,2014-06-06T00:30:00Z,27.9396,-96.8429,2.0,29.4945,11111222 
TABS,ioos:station:wmo:42048:1,2014-06-06T01:00:00Z,27.9396,-96.8429,2.0,29.4459,11111222 
TABS,ioos:station:wmo:42048:1,2014-06-06T01:30:00Z,27.9396,-96.8429,2.0,29.4165,11111222 
TABS,ioos:station:wmo:42048:1,2014-06-06T02:00:00Z,27.9396,-96.8429,2.0,29.3662,11111222 
TABS,ioos:station:wmo:42048:1,2014-06-06T02:30:00Z,27.9396,-96.8429,2.0,29.3363,11111222 
TABS,ioos:station:wmo:42048:1,2014-06-06T03:00:00Z,27.9396,-96.8429,2.0,29.315,11111222 
TABS,ioos:station:wmo:42048:1,2014-06-06T03:30:00Z,27.9396,-96.8429,2.0,29.3016,11111222 
TABS,ioos:station:wmo:42048:1,2014-06-06T04:00:00Z,27.9396,-96.8429,2.0,29.2923,11111222 
TABS,ioos:station:wmo:42048:1,2014-06-06T04:30:00Z,27.9396,-96.8429,2.0,29.2654,11111222 
TABS,ioos:station:wmo:42048:1,2014-06-06T05:00:00Z,27.9396,-96.8429,2.0,29.2585,11111222 
TABS,ioos:station:wmo:42048:1,2014-06-06T05:30:00Z,27.9396,-96.8429,2.0,29.2424,11111222 
TABS,ioos:station:wmo:42048:1,2014-06-06T06:00:00Z,27.9396,-96.8429,2.0,29.2379,11111222 
TABS,ioos:station:wmo:42048:1,2014-06-06T06:30:00Z,27.9396,-96.8429,2.0,29.2255,11111222 
TABS,ioos:station:wmo:42048:1,2014-06-06T07:00:00Z,27.9396,-96.8429,2.0,29.2325,11111222 
TABS,ioos:station:wmo:42048:1,2014-06-06T07:30:00Z,27.9396,-96.8429,2.0,29.2497,11111222 
TABS,ioos:station:wmo:42048:1,2014-06-06T08:00:00Z,27.9396,-96.8429,2.0,29.2621,11111222 
TABS,ioos:station:wmo:42048:1,2014-06-06T08:30:00Z,27.9396,-96.8429,2.0,29.2856,11111222 
TABS,ioos:station:wmo:42048:1,2014-06-06T09:00:00Z,27.9396,-96.8429,2.0,29.3148,11111222 
TABS,ioos:station:wmo:42048:1,2014-06-06T09:30:00Z,27.9396,-96.8429,2.0,29.3544,11111222 
TABS,ioos:station:wmo:42048:1,2014-06-06T10:00:00Z,27.9396,-96.8429,2.0,29.4114,11111222 
TABS,ioos:station:wmo:42048:1,2014-06-06T10:30:00Z,27.9396,-96.8429,2.0,29.4578,11111222 
TABS,ioos:station:wmo:42048:1,2014-06-06T11:00:00Z,27.9396,-96.8429,2.0,29.4728,11111222 
TABS,ioos:station:wmo:42048:1,2014-06-06T11:30:00Z,27.9396,-96.8429,2.0,29.4809,11111222 
TABS,ioos:station:wmo:42048:1,2014-06-06T12:00:00Z,27.9396,-96.8429,2.0,29.4779,11111222 
TABS,ioos:station:wmo:42048:1,2014-06-06T12:30:00Z,27.9396,-96.8429,2.0,29.5107,11111222 